Time,TemperatureF,DewpointF,PressureIn,WindDirection,WindDirectionDegrees,WindSpeedMPH,WindSpeedGustMPH,Humidity,HourlyPrecipIn,Conditions,Clouds,dailyrainin,SolarRadiationWatts/m^2,SoftwareType,DateUTC
2013-08-19 00:01:00,81.5,76.9,30.09,ESE,107,0.0,0.0,86,0.00,CLR,,0.04,0.0,WeatherDisplay:10.37,2013-08-19 04:01:00,
2013-08-19 00:06:00,81.4,76.8,30.09,ESE,107,0.0,0.0,86,0.00,RA,,0.00,0.0,WeatherDisplay:10.37,2013-08-19 04:06:00,
2013-08-19 00:11:00,81.4,76.8,30.09,ESE,107,0.0,0.0,86,0.00,CLR,,0.00,0.0,WeatherDisplay:10.37,2013-08-19 04:11:00,
2013-08-19 00:16:00,81.3,76.7,30.09,East,98,0.2,0.0,86,0.00,CLR,,0.00,0.0,WeatherDisplay:10.37,2013-08-19 04:16:00,
2013-08-19 00:21:00,81.2,77.0,30.08,East,100,0.0,0.0,87,0.00,CLR,,0.00,0.0,WeatherDisplay:10.37,2013-08-19 04:21:00,
2013-08-19 00:26:00,81.2,77.0,30.08,SE,129,0.6,3.5,87,0.00,CLR,,0.00,0.0,WeatherDisplay:10.37,2013-08-19 04:26:00,
2013-08-19 00:31:00,81.2,76.6,30.08,East,100,0.0,0.0,86,0.00,CLR,,0.00,0.0,WeatherDisplay:10.37,2013-08-19 04:31:00,
2013-08-19 00:36:00,81.3,76.7,30.08,ESE,104,1.0,3.5,86,0.00,CLR,,0.00,0.0,WeatherDisplay:10.37,2013-08-19 04:36:00,
2013-08-19 00:41:00,81.4,76.8,30.08,ESE,109,0.2,1.1,86,0.00,CLR,,0.00,0.0,WeatherDisplay:10.37,2013-08-19 04:41:00,
2013-08-19 00:46:00,81.3,76.7,30.08,SE,133,0.1,1.1,86,0.00,CLR,,0.00,0.0,WeatherDisplay:10.37,2013-08-19 04:46:00,
2013-08-19 00:51:00,81.3,77.1,30.08,East,85,0.0,0.0,87,0.00,CLR,,0.00,0.0,WeatherDisplay:10.37,2013-08-19 04:51:00,
2013-08-19 00:56:00,81.3,76.7,30.08,East,88,0.0,0.0,86,0.00,CLR,,0.00,0.0,WeatherDisplay:10.37,2013-08-19 04:56:00,
2013-08-19 01:01:00,81.2,76.6,30.08,East,88,0.0,0.0,86,0.00,CLR,,0.00,0.0,WeatherDisplay:10.37,2013-08-19 05:01:00,
2013-08-19 01:06:00,81.1,76.5,30.08,East,88,0.0,0.0,86,0.00,CLR,,0.00,0.0,WeatherDisplay:10.37,2013-08-19 05:06:00,
2013-08-19 01:11:00,81.0,76.4,30.07,East,88,0.0,0.0,86,0.00,CLR,,0.00,0.0,WeatherDisplay:10.37,2013-08-19 05:11:00,
2013-08-19 01:16:00,80.9,76.3,30.07,East,88,0.0,0.0,86,0.00,CLR,,0.00,0.0,WeatherDisplay:10.37,2013-08-19 05:16:00,
2013-08-19 01:21:00,80.9,76.7,30.07,East,90,0.0,0.0,87,0.00,CLR,,0.00,0.0,WeatherDisplay:10.37,2013-08-19 05:21:00,
2013-08-19 01:26:00,80.8,76.6,30.07,East,90,0.0,0.0,87,0.00,CLR,,0.00,0.0,WeatherDisplay:10.37,2013-08-19 05:26:00,
2013-08-19 01:31:00,80.8,76.6,30.07,East,90,0.0,0.0,87,0.00,CLR,,0.00,0.0,WeatherDisplay:10.37,2013-08-19 05:31:00,
2013-08-19 01:36:00,80.7,76.5,30.07,East,90,0.0,0.0,87,0.00,CLR,,0.00,0.0,WeatherDisplay:10.37,2013-08-19 05:36:00,
2013-08-19 01:41:00,80.7,76.5,30.06,East,86,0.0,0.0,87,0.00,CLR,,0.00,0.0,WeatherDisplay:10.37,2013-08-19 05:41:00,
2013-08-19 01:46:00,80.7,76.5,30.06,East,80,0.0,2.3,87,0.00,CLR,,0.00,0.0,WeatherDisplay:10.37,2013-08-19 05:46:00,
2013-08-19 01:51:00,80.7,76.8,30.06,East,100,0.5,3.5,88,0.00,CLR,,0.00,0.0,WeatherDisplay:10.37,2013-08-19 05:51:00,
2013-08-19 01:56:00,80.7,76.8,30.06,ESE,121,0.3,3.5,88,0.00,CLR,,0.00,0.0,WeatherDisplay:10.37,2013-08-19 05:56:00,
2013-08-19 02:01:00,80.8,76.9,30.06,ESE,117,0.1,3.5,88,0.00,CLR,,0.00,0.0,WeatherDisplay:10.37,2013-08-19 06:01:00,
2013-08-19 02:06:00,80.8,76.9,30.06,ESE,123,0.0,0.0,88,0.00,CLR,,0.00,0.0,WeatherDisplay:10.37,2013-08-19 06:06:00,
2013-08-19 02:11:00,80.9,77.0,30.06,ESE,123,0.0,0.0,88,0.00,CLR,,0.00,0.0,WeatherDisplay:10.37,2013-08-19 06:11:00,
2013-08-19 02:16:00,81.0,77.1,30.06,SE,124,0.0,0.0,88,0.00,CLR,,0.00,0.0,WeatherDisplay:10.37,2013-08-19 06:16:00,
2013-08-19 02:21:00,81.0,77.1,30.06,SE,124,0.0,0.0,88,0.00,CLR,,0.00,0.0,WeatherDisplay:10.37,2013-08-19 06:21:00,
2013-08-19 02:26:00,80.9,77.0,30.05,SE,124,0.0,0.0,88,0.00,CLR,,0.00,0.0,WeatherDisplay:10.37,2013-08-19 06:26:00,
2013-08-19 02:31:00,80.9,77.0,30.05,SE,125,0.0,2.3,88,0.00,CLR,,0.00,0.0,WeatherDisplay:10.37,2013-08-19 06:31:00,
2013-08-19 02:36:00,80.9,77.0,30.05,ESE,121,0.0,0.0,88,0.00,CLR,,0.00,0.0,WeatherDisplay:10.37,2013-08-19 06:36:00,
2013-08-19 02:41:00,80.9,77.0,30.05,ESE,115,0.0,0.0,88,0.00,CLR,,0.00,0.0,WeatherDisplay:10.37,2013-08-19 06:41:00,
2013-08-19 02:46:00,80.8,77.3,30.05,ESE,115,0.0,0.0,89,0.00,CLR,,0.00,0.0,WeatherDisplay:10.37,2013-08-19 06:46:00,
2013-08-19 02:51:00,80.8,77.3,30.05,ESE,115,0.0,0.0,89,0.00,CLR,,0.00,0.0,WeatherDisplay:10.37,2013-08-19 06:51:00,
2013-08-19 02:56:00,80.7,77.2,30.05,ESE,115,0.0,0.0,89,0.00,CLR,,0.00,0.0,WeatherDisplay:10.37,2013-08-19 06:56:00,
2013-08-19 03:01:00,80.6,77.1,30.04,ESE,115,0.0,0.0,89,0.00,CLR,,0.00,0.0,WeatherDisplay:10.37,2013-08-19 07:01:00,
2013-08-19 03:06:00,80.5,77.0,30.04,ESE,115,0.0,0.0,89,0.00,CLR,,0.00,0.0,WeatherDisplay:10.37,2013-08-19 07:06:00,
2013-08-19 03:11:00,80.5,77.0,30.04,ESE,115,0.0,0.0,89,0.00,CLR,,0.00,0.0,WeatherDisplay:10.37,2013-08-19 07:11:00,
2013-08-19 03:16:00,80.4,76.9,30.04,ESE,115,0.0,0.0,89,0.00,CLR,,0.00,0.0,WeatherDisplay:10.37,2013-08-19 07:16:00,
2013-08-19 03:21:00,80.3,76.4,30.04,ESE,110,0.0,0.0,88,0.00,CLR,,0.00,0.0,WeatherDisplay:10.37,2013-08-19 07:21:00,
2013-08-19 03:26:00,80.3,76.8,30.04,ESE,104,0.0,0.0,89,0.00,CLR,,0.00,0.0,WeatherDisplay:10.37,2013-08-19 07:26:00,
2013-08-19 03:31:00,80.3,76.8,30.04,ESE,104,0.0,0.0,89,0.00,CLR,,0.00,0.0,WeatherDisplay:10.37,2013-08-19 07:31:00,
2013-08-19 03:36:00,80.3,76.8,30.04,ESE,104,0.0,0.0,89,0.00,CLR,,0.00,0.0,WeatherDisplay:10.37,2013-08-19 07:36:00,
2013-08-19 03:41:00,80.2,76.7,30.04,ESE,102,0.0,0.0,89,0.00,CLR,,0.00,0.0,WeatherDisplay:10.37,2013-08-19 07:41:00,
2013-08-19 03:46:00,80.2,76.7,30.04,East,83,0.0,0.0,89,0.00,CLR,,0.00,0.0,WeatherDisplay:10.37,2013-08-19 07:46:00,
2013-08-19 03:51:00,80.3,76.8,30.03,East,84,0.0,0.0,89,0.00,CLR,,0.00,0.0,WeatherDisplay:10.37,2013-08-19 07:51:00,
2013-08-19 03:56:00,80.3,76.8,30.03,East,92,0.0,1.1,89,0.00,CLR,,0.00,0.0,WeatherDisplay:10.37,2013-08-19 07:56:00,
2013-08-19 04:01:00,80.3,76.8,30.03,East,92,0.0,0.0,89,0.00,CLR,,0.00,0.0,WeatherDisplay:10.37,2013-08-19 08:01:00,
2013-08-19 04:06:00,80.3,76.8,30.04,East,92,0.0,0.0,89,0.00,CLR,,0.00,0.0,WeatherDisplay:10.37,2013-08-19 08:06:00,
2013-08-19 04:11:00,80.3,76.8,30.03,East,93,0.0,0.0,89,0.00,CLR,,0.00,0.0,WeatherDisplay:10.37,2013-08-19 08:11:00,
2013-08-19 04:16:00,80.3,76.8,30.03,East,93,0.0,0.0,89,0.00,CLR,,0.00,0.0,WeatherDisplay:10.37,2013-08-19 08:16:00,
2013-08-19 04:21:00,80.3,76.8,30.04,ESE,103,0.2,1.1,89,0.00,CLR,,0.00,0.0,WeatherDisplay:10.37,2013-08-19 08:21:00,
2013-08-19 04:26:00,80.3,76.8,30.03,ESE,114,1.0,1.1,89,0.00,CLR,,0.00,0.0,WeatherDisplay:10.37,2013-08-19 08:26:00,
2013-08-19 04:31:00,80.3,76.4,30.03,SE,143,3.0,5.0,88,0.00,CLR,,0.00,0.0,WeatherDisplay:10.37,2013-08-19 08:31:00,
2013-08-19 04:36:00,79.8,72.7,30.03,SE,138,2.3,8.1,79,0.00,CLR,,0.00,0.0,WeatherDisplay:10.37,2013-08-19 08:36:00,
2013-08-19 04:41:00,79.4,72.3,30.03,East,95,0.6,3.5,79,0.00,CLR,,0.00,0.0,WeatherDisplay:10.37,2013-08-19 08:41:00,
2013-08-19 04:46:00,79.2,72.5,30.02,ESE,105,0.0,0.0,80,0.00,CLR,,0.00,0.0,WeatherDisplay:10.37,2013-08-19 08:46:00,
2013-08-19 04:51:00,79.0,73.0,30.02,ESE,111,1.3,3.5,82,0.00,CLR,,0.00,0.0,WeatherDisplay:10.37,2013-08-19 08:51:00,
2013-08-19 04:56:00,78.7,72.7,30.02,ESE,113,1.8,3.5,82,0.00,CLR,,0.00,0.0,WeatherDisplay:10.37,2013-08-19 08:56:00,
2013-08-19 05:01:00,78.5,73.3,30.02,ESE,114,0.0,0.0,84,0.00,CLR,,0.00,0.0,WeatherDisplay:10.37,2013-08-19 09:01:00,
2013-08-19 05:06:00,78.4,73.5,30.02,ESE,114,0.0,0.0,85,0.00,CLR,,0.00,0.0,WeatherDisplay:10.37,2013-08-19 09:06:00,
2013-08-19 05:11:00,78.4,73.9,30.02,East,96,0.0,3.5,86,0.00,CLR,,0.00,0.0,WeatherDisplay:10.37,2013-08-19 09:11:00,
2013-08-19 05:16:00,78.3,74.1,30.01,East,96,0.0,0.0,87,0.00,CLR,,0.00,0.0,WeatherDisplay:10.37,2013-08-19 09:16:00,
2013-08-19 05:21:00,78.3,74.1,30.01,East,95,0.0,0.0,87,0.00,CLR,,0.00,0.0,WeatherDisplay:10.37,2013-08-19 09:21:00,
2013-08-19 05:26:00,78.2,74.4,30.01,East,95,0.0,0.0,88,0.00,CLR,,0.00,0.0,WeatherDisplay:10.37,2013-08-19 09:26:00,
2013-08-19 05:31:00,78.3,74.8,30.01,East,96,0.0,0.0,89,0.00,CLR,,0.00,0.0,WeatherDisplay:10.37,2013-08-19 09:31:00,
2013-08-19 05:36:00,78.4,74.9,30.01,ENE,68,0.1,1.0,89,0.00,CLR,,0.00,0.0,WeatherDisplay:10.37,2013-08-19 09:36:00,
2013-08-19 05:41:00,78.7,75.2,30.01,ENE,73,0.0,0.0,89,0.00,CLR,,0.00,0.0,WeatherDisplay:10.37,2013-08-19 09:41:00,
2013-08-19 05:46:00,78.9,75.4,30.01,ENE,78,0.0,3.5,89,0.00,CLR,,0.00,0.0,WeatherDisplay:10.37,2013-08-19 09:46:00,
2013-08-19 05:51:00,79.1,75.2,30.01,ESE,103,1.5,3.5,88,0.00,CLR,,0.00,0.0,WeatherDisplay:10.37,2013-08-19 09:51:00,
2013-08-19 05:56:00,79.1,74.9,30.01,East,81,1.0,3.5,87,0.00,CLR,,0.00,0.0,WeatherDisplay:10.37,2013-08-19 09:56:00,
2013-08-19 06:01:00,79.3,75.4,30.01,East,93,0.2,2.0,88,0.00,CLR,,0.00,0.0,WeatherDisplay:10.37,2013-08-19 10:01:00,
2013-08-19 06:06:00,79.7,75.8,30.01,East,95,0.4,4.6,88,0.00,CLR,,0.00,0.0,WeatherDisplay:10.37,2013-08-19 10:06:00,
2013-08-19 06:11:00,80.1,76.2,30.01,ESE,103,2.5,3.5,88,0.00,CLR,,0.00,0.0,WeatherDisplay:10.37,2013-08-19 10:11:00,
2013-08-19 06:16:00,80.3,76.4,30.01,East,97,1.5,3.5,88,0.00,CLR,,0.00,0.0,WeatherDisplay:10.37,2013-08-19 10:16:00,
2013-08-19 06:21:00,80.4,76.5,30.00,East,99,1.7,8.1,88,0.00,CLR,,0.00,0.0,WeatherDisplay:10.37,2013-08-19 10:21:00,
2013-08-19 06:26:00,80.5,76.6,30.01,SE,130,3.1,5.8,88,0.00,OVC,,0.00,0.0,WeatherDisplay:10.37,2013-08-19 10:26:00,
2013-08-19 06:31:00,80.5,76.3,30.01,ESE,121,7.1,9.2,87,0.00,OVC,,0.00,0.0,WeatherDisplay:10.37,2013-08-19 10:31:00,
2013-08-19 06:36:00,80.7,76.1,30.01,ESE,111,4.2,6.9,86,0.00,OVC,,0.00,0.0,WeatherDisplay:10.37,2013-08-19 10:36:00,
2013-08-19 06:41:00,80.8,76.2,30.01,ESE,105,5.6,9.2,86,0.00,OVC,,0.00,0.0,WeatherDisplay:10.37,2013-08-19 10:41:00,
2013-08-19 06:46:00,80.9,76.7,30.01,ESE,121,2.1,10.4,87,0.00,OVC,,0.00,0.0,WeatherDisplay:10.37,2013-08-19 10:46:00,
2013-08-19 06:51:00,80.9,76.7,30.01,East,96,2.9,6.9,87,0.00,OVC,,0.00,0.0,WeatherDisplay:10.37,2013-08-19 10:51:00,
2013-08-19 06:56:00,80.9,76.3,30.01,ESE,123,2.0,3.5,86,0.00,SCT,,0.00,5.0,WeatherDisplay:10.37,2013-08-19 10:56:00,
2013-08-19 07:01:00,80.9,76.7,30.01,ESE,122,2.9,9.0,87,0.00,SCT,,0.00,16.0,WeatherDisplay:10.37,2013-08-19 11:01:00,
2013-08-19 07:06:00,81.0,76.8,30.01,SE,130,4.7,8.0,87,0.00,BKN,,0.00,12.0,WeatherDisplay:10.37,2013-08-19 11:06:00,
2013-08-19 07:11:00,81.0,76.1,30.01,ESE,104,3.3,6.9,85,0.00,BKN,,0.00,16.0,WeatherDisplay:10.37,2013-08-19 11:11:00,
2013-08-19 07:16:00,81.1,76.5,30.01,SE,132,1.5,8.1,86,0.00,BKN,,0.00,23.0,WeatherDisplay:10.37,2013-08-19 11:16:00,
2013-08-19 07:21:00,81.2,76.6,30.01,SE,128,4.3,6.9,86,0.00,SCT,,0.00,46.0,WeatherDisplay:10.37,2013-08-19 11:21:00,
2013-08-19 07:26:00,81.3,76.7,30.01,SE,128,4.0,8.1,86,0.00,SCT,,0.00,53.0,WeatherDisplay:10.37,2013-08-19 11:26:00,
2013-08-19 07:31:00,81.4,76.8,30.01,ESE,119,5.0,11.0,86,0.00,BKN,,0.00,30.0,WeatherDisplay:10.37,2013-08-19 11:31:00,
2013-08-19 07:36:00,81.4,76.1,30.01,ESE,122,4.4,8.1,84,0.00,BKN,,0.00,32.0,WeatherDisplay:10.37,2013-08-19 11:36:00,
2013-08-19 07:41:00,81.5,75.8,30.01,ESE,113,1.5,6.0,83,0.00,BKN,,0.00,35.0,WeatherDisplay:10.37,2013-08-19 11:41:00,
2013-08-19 07:46:00,81.6,75.6,30.02,SE,130,4.0,9.2,82,0.00,BKN,,0.00,40.0,WeatherDisplay:10.37,2013-08-19 11:46:00,
2013-08-19 07:51:00,81.7,75.7,30.02,East,96,2.8,5.8,82,0.00,BKN,,0.00,47.0,WeatherDisplay:10.37,2013-08-19 11:51:00,
2013-08-19 07:56:00,81.9,76.6,30.02,ESE,123,2.7,6.9,84,0.00,BKN,,0.00,197.0,WeatherDisplay:10.37,2013-08-19 11:56:00,
2013-08-19 08:01:00,82.1,77.1,30.02,ESE,105,5.1,6.9,85,0.00,SCT,,0.00,221.0,WeatherDisplay:10.37,2013-08-19 12:01:00,
2013-08-19 08:06:00,82.3,77.0,30.02,East,83,4.1,9.2,84,0.00,FEW,,0.00,185.0,WeatherDisplay:10.37,2013-08-19 12:06:00,
2013-08-19 08:11:00,82.5,77.2,30.02,ESE,116,4.3,6.9,84,0.00,SCT,,0.00,229.0,WeatherDisplay:10.37,2013-08-19 12:11:00,
2013-08-19 08:16:00,83.0,77.7,30.02,ESE,117,5.5,8.1,84,0.00,FEW,,0.00,262.0,WeatherDisplay:10.37,2013-08-19 12:16:00,
2013-08-19 08:21:00,83.4,77.7,30.02,SE,146,5.9,8.1,83,0.00,CLR,,0.00,288.0,WeatherDisplay:10.37,2013-08-19 12:21:00,
2013-08-19 08:26:00,83.9,77.8,30.02,ESE,103,5.4,8.1,82,0.00,CLR,,0.00,294.0,WeatherDisplay:10.37,2013-08-19 12:26:00,
2013-08-19 08:31:00,84.2,77.7,30.02,ESE,115,4.2,8.1,81,0.00,CLR,,0.00,323.0,WeatherDisplay:10.37,2013-08-19 12:31:00,
2013-08-19 08:36:00,84.5,77.6,30.02,ESE,119,6.8,9.2,80,0.00,CLR,,0.00,327.0,WeatherDisplay:10.37,2013-08-19 12:36:00,
2013-08-19 08:41:00,84.7,77.5,30.02,SE,130,4.7,7.0,79,0.00,CLR,,0.00,336.0,WeatherDisplay:10.37,2013-08-19 12:41:00,
2013-08-19 08:46:00,84.6,77.0,30.02,ESE,118,4.7,6.0,78,0.00,CLR,,0.00,69.0,WeatherDisplay:10.37,2013-08-19 12:46:00,
2013-08-19 08:51:00,84.4,77.2,30.02,SE,131,6.2,9.2,79,0.00,SCT,,0.00,425.0,WeatherDisplay:10.37,2013-08-19 12:51:00,
2013-08-19 08:56:00,84.3,77.5,30.03,SE,132,2.4,5.8,80,0.00,SCT,,0.00,172.0,WeatherDisplay:10.37,2013-08-19 12:56:00,
2013-08-19 09:01:00,84.7,77.8,30.03,SE,130,4.5,9.2,80,0.00,FEW,,0.00,489.0,WeatherDisplay:10.37,2013-08-19 13:01:00,
2013-08-19 09:06:00,85.1,78.2,30.03,SE,136,4.8,4.8,80,0.00,FEW,,0.00,457.0,WeatherDisplay:10.37,2013-08-19 13:06:00,
2013-08-19 09:11:00,85.4,77.8,30.03,East,94,5.7,8.1,78,0.00,FEW,,0.00,232.0,WeatherDisplay:10.37,2013-08-19 13:11:00,
2013-08-19 09:16:00,85.3,78.0,30.03,SE,127,4.1,10.4,79,0.00,FEW,,0.00,232.0,WeatherDisplay:10.37,2013-08-19 13:16:00,
2013-08-19 09:21:00,85.1,77.8,30.03,SE,124,4.5,9.2,79,0.00,BKN,,0.00,81.0,WeatherDisplay:10.37,2013-08-19 13:21:00,
2013-08-19 09:26:00,85.1,78.2,30.03,SE,124,2.8,6.9,80,0.00,SCT,,0.00,527.0,WeatherDisplay:10.37,2013-08-19 13:26:00,
2013-08-19 09:31:00,85.6,78.3,30.03,SE,139,7.0,10.4,79,0.00,FEW,,0.00,499.0,WeatherDisplay:10.37,2013-08-19 13:31:00,
2013-08-19 09:36:00,86.2,78.5,30.03,SE,146,4.2,9.2,78,0.00,CLR,,0.00,522.0,WeatherDisplay:10.37,2013-08-19 13:36:00,
2013-08-19 09:41:00,86.4,77.9,30.04,ESE,119,3.8,9.2,76,0.00,FEW,,0.00,88.0,WeatherDisplay:10.37,2013-08-19 13:41:00,
2013-08-19 09:46:00,86.2,78.1,30.04,East,88,7.5,8.1,77,0.00,BKN,,0.00,88.0,WeatherDisplay:10.37,2013-08-19 13:46:00,
2013-08-19 09:51:00,86.4,78.3,30.04,ESE,112,2.9,4.0,77,0.00,BKN,,0.00,566.0,WeatherDisplay:10.37,2013-08-19 13:51:00,
2013-08-19 09:56:00,86.8,77.9,30.04,ESE,109,3.5,10.0,75,0.00,FEW,,0.00,598.0,WeatherDisplay:10.37,2013-08-19 13:56:00,
2013-08-19 10:01:00,87.3,78.4,30.04,SE,129,3.6,9.2,75,0.00,CLR,,0.00,594.0,WeatherDisplay:10.37,2013-08-19 14:01:00,
2013-08-19 10:06:00,87.5,78.2,30.05,SE,132,5.7,7.0,74,0.00,FEW,,0.00,608.0,WeatherDisplay:10.37,2013-08-19 14:06:00,
2013-08-19 10:11:00,87.9,78.6,30.05,SE,128,2.6,5.8,74,0.00,FEW,,0.00,663.0,WeatherDisplay:10.37,2013-08-19 14:11:00,
2013-08-19 10:16:00,88.6,78.8,30.05,South,188,2.5,5.8,73,0.00,CLR,,0.00,643.0,WeatherDisplay:10.37,2013-08-19 14:16:00,
2013-08-19 10:21:00,89.0,78.4,30.05,SSE,162,5.0,6.9,71,0.00,CLR,,0.00,657.0,WeatherDisplay:10.37,2013-08-19 14:21:00,
2013-08-19 10:26:00,89.1,78.0,30.05,ESE,106,4.3,9.2,70,0.00,FEW,,0.00,673.0,WeatherDisplay:10.37,2013-08-19 14:26:00,
2013-08-19 10:31:00,89.1,78.0,30.05,SE,134,5.2,9.2,70,0.00,FEW,,0.00,707.0,WeatherDisplay:10.37,2013-08-19 14:31:00,
2013-08-19 10:36:00,88.9,78.3,30.05,East,100,3.2,8.1,71,0.00,FEW,,0.00,703.0,WeatherDisplay:10.37,2013-08-19 14:36:00,
2013-08-19 10:41:00,89.0,78.4,30.05,ESE,121,3.3,9.2,71,0.00,FEW,,0.00,705.0,WeatherDisplay:10.37,2013-08-19 14:41:00,
2013-08-19 10:46:00,89.3,78.7,30.05,SE,132,2.5,4.0,71,0.00,FEW,,0.00,768.0,WeatherDisplay:10.37,2013-08-19 14:46:00,
2013-08-19 10:51:00,89.4,78.8,30.05,ESE,111,6.6,8.1,71,0.00,FEW,,0.00,149.0,WeatherDisplay:10.37,2013-08-19 14:51:00,
2013-08-19 10:56:00,88.6,79.2,30.05,East,98,6.5,10.4,74,0.00,SCT,,0.01,257.0,WeatherDisplay:10.37,2013-08-19 14:56:00,
2013-08-19 11:01:00,87.3,79.6,30.05,SE,127,2.9,11.5,78,0.01,RA,,0.01,819.0,WeatherDisplay:10.37,2013-08-19 15:01:00,
2013-08-19 11:06:00,86.8,80.3,30.05,ENE,71,1.9,8.1,81,0.01,RA,,0.01,722.0,WeatherDisplay:10.37,2013-08-19 15:06:00,
2013-08-19 11:11:00,86.6,80.1,30.05,East,99,3.8,9.2,81,0.01,FEW,,0.01,745.0,WeatherDisplay:10.37,2013-08-19 15:11:00,
2013-08-19 11:16:00,86.8,78.7,30.05,ESE,122,6.4,8.1,77,0.01,FEW,,0.01,770.0,WeatherDisplay:10.37,2013-08-19 15:16:00,
2013-08-19 11:21:00,87.2,79.1,30.05,ESE,123,5.0,10.0,77,0.00,FEW,FEW,0.01,779.0,WeatherDisplay:10.37,2013-08-19 15:21:00,
2013-08-19 11:26:00,87.5,78.6,30.05,ESE,123,5.0,10.0,75,0.00,FEW,FEW,0.01,793.0,WeatherDisplay:10.37,2013-08-19 15:26:00,
2013-08-19 11:31:00,88.1,79.6,30.05,East,93,2.6,5.8,76,0.01,FEW,,0.01,805.0,WeatherDisplay:10.37,2013-08-19 15:31:00,
2013-08-19 11:36:00,88.6,79.2,30.05,ESE,109,2.6,8.1,74,0.01,FEW,,0.01,807.0,WeatherDisplay:10.37,2013-08-19 15:36:00,
2013-08-19 11:41:00,88.9,79.1,30.05,SE,131,4.6,5.8,73,0.01,FEW,,0.01,819.0,WeatherDisplay:10.37,2013-08-19 15:41:00,
2013-08-19 11:46:00,89.2,79.8,30.06,ESE,115,5.0,7.0,74,0.01,FEW,,0.01,844.0,WeatherDisplay:10.37,2013-08-19 15:46:00,
2013-08-19 11:51:00,89.4,79.6,30.05,ESE,109,4.4,6.0,73,0.01,FEW,,0.01,835.0,WeatherDisplay:10.37,2013-08-19 15:51:00,
2013-08-19 11:56:00,89.3,79.5,30.05,ESE,113,2.5,6.9,73,0.01,FEW,,0.01,954.0,WeatherDisplay:10.37,2013-08-19 15:56:00,
2013-08-19 12:01:00,89.2,79.4,30.05,SE,133,4.6,13.8,73,0.00,FEW,,0.01,967.0,WeatherDisplay:10.37,2013-08-19 16:01:00,
2013-08-19 12:06:00,89.3,79.9,30.05,ESE,117,2.0,9.2,74,0.00,FEW,,0.01,330.0,WeatherDisplay:10.37,2013-08-19 16:06:00,
2013-08-19 12:11:00,89.6,78.5,30.05,ESE,108,5.9,9.0,70,0.00,SCT,,0.01,881.0,WeatherDisplay:10.37,2013-08-19 16:11:00,
2013-08-19 12:16:00,89.4,77.9,30.05,ESE,116,7.0,12.0,69,0.00,SCT,SCT,0.01,877.0,WeatherDisplay:10.37,2013-08-19 16:16:00,
2013-08-19 12:21:00,89.4,78.3,30.05,ESE,121,3.8,9.0,70,0.00,FEW,,0.01,891.0,WeatherDisplay:10.37,2013-08-19 16:21:00,
2013-08-19 12:26:00,89.4,77.9,30.05,SE,127,5.9,9.2,69,0.00,FEW,,0.01,891.0,WeatherDisplay:10.37,2013-08-19 16:26:00,
2013-08-19 12:32:00,89.5,78.4,30.05,SE,140,5.5,8.1,70,0.00,FEW,,0.01,853.0,WeatherDisplay:10.37,2013-08-19 16:32:00,
2013-08-19 12:37:00,89.6,78.9,30.05,ESE,120,5.3,8.1,71,0.00,FEW,,0.01,944.0,WeatherDisplay:10.37,2013-08-19 16:37:00,
2013-08-19 12:42:00,89.7,78.6,30.05,ESE,109,4.9,11.5,70,0.00,FEW,,0.01,942.0,WeatherDisplay:10.37,2013-08-19 16:42:00,
2013-08-19 12:47:00,89.7,79.0,30.05,ENE,69,4.9,8.1,71,0.00,FEW,,0.01,935.0,WeatherDisplay:10.37,2013-08-19 16:47:00,
2013-08-19 12:52:00,90.0,78.9,30.05,ESE,109,4.7,8.1,70,0.00,FEW,,0.01,898.0,WeatherDisplay:10.37,2013-08-19 16:52:00,
2013-08-19 12:57:00,90.2,77.3,30.05,SSE,156,5.4,10.4,66,0.00,FEW,,0.01,888.0,WeatherDisplay:10.37,2013-08-19 16:57:00,
2013-08-19 13:02:00,90.2,78.2,30.04,SE,128,5.7,11.5,68,0.00,FEW,,0.01,888.0,WeatherDisplay:10.37,2013-08-19 17:02:00,
2013-08-19 13:07:00,90.1,77.7,30.04,East,100,6.1,11.5,67,0.00,FEW,,0.01,886.0,WeatherDisplay:10.37,2013-08-19 17:07:00,
2013-08-19 13:12:00,89.9,78.8,30.04,SE,139,6.5,11.5,70,0.00,FEW,,0.01,886.0,WeatherDisplay:10.37,2013-08-19 17:12:00,
2013-08-19 13:17:00,90.0,77.6,30.04,SE,127,7.4,11.5,67,0.00,FEW,,0.01,884.0,WeatherDisplay:10.37,2013-08-19 17:17:00,
2013-08-19 13:22:00,89.9,78.4,30.04,ESE,115,4.4,8.1,69,0.00,FEW,,0.01,889.0,WeatherDisplay:10.37,2013-08-19 17:22:00,
2013-08-19 13:27:00,90.1,79.0,30.04,SE,140,4.7,8.1,70,0.00,FEW,,0.01,889.0,WeatherDisplay:10.37,2013-08-19 17:27:00,
2013-08-19 13:32:00,90.0,78.0,30.04,ESE,121,6.7,11.5,68,0.00,FEW,,0.01,882.0,WeatherDisplay:10.37,2013-08-19 17:32:00,
2013-08-19 13:37:00,89.7,78.6,30.04,ESE,103,2.3,6.9,70,0.00,FEW,,0.01,886.0,WeatherDisplay:10.37,2013-08-19 17:37:00,
2013-08-19 13:42:00,90.0,79.3,30.03,NE,56,4.1,6.9,71,0.00,FEW,,0.01,893.0,WeatherDisplay:10.37,2013-08-19 17:42:00,
2013-08-19 13:47:00,90.4,80.6,30.03,SSE,153,2.1,3.5,73,0.00,FEW,,0.01,882.0,WeatherDisplay:10.37,2013-08-19 17:47:00,
2013-08-19 13:52:00,90.5,78.5,30.03,SE,139,5.2,11.5,68,0.00,FEW,,0.01,886.0,WeatherDisplay:10.37,2013-08-19 17:52:00,
2013-08-19 13:57:00,90.4,78.4,30.03,ESE,109,6.4,9.2,68,0.00,FEW,,0.01,889.0,WeatherDisplay:10.37,2013-08-19 17:57:00,
2013-08-19 14:02:00,90.5,79.8,30.03,SSE,149,4.0,11.5,71,0.00,FEW,,0.01,998.0,WeatherDisplay:10.37,2013-08-19 18:02:00,
2013-08-19 14:07:00,90.4,78.8,30.03,SE,134,6.3,9.2,69,0.00,SCT,,0.01,197.0,WeatherDisplay:10.37,2013-08-19 18:07:00,
2013-08-19 14:12:00,90.0,79.8,30.03,SE,130,5.0,7.0,72,0.00,SCT,,0.01,867.0,WeatherDisplay:10.37,2013-08-19 18:12:00,
2013-08-19 14:17:00,90.0,78.9,30.03,SE,140,3.6,9.0,70,0.00,SCT,,0.01,854.0,WeatherDisplay:10.37,2013-08-19 18:17:00,
2013-08-19 14:22:00,89.9,78.8,30.03,ENE,77,3.4,8.1,70,0.00,FEW,,0.01,849.0,WeatherDisplay:10.37,2013-08-19 18:22:00,
2013-08-19 14:27:00,90.1,79.4,30.02,East,99,2.9,7.0,71,0.00,FEW,,0.01,844.0,WeatherDisplay:10.37,2013-08-19 18:27:00,
2013-08-19 14:32:00,90.2,79.1,30.02,ESE,121,6.7,10.4,70,0.00,FEW,,0.01,858.0,WeatherDisplay:10.37,2013-08-19 18:32:00,
2013-08-19 14:37:00,89.8,78.7,30.02,SE,138,5.3,9.2,70,0.00,FEW,,0.01,870.0,WeatherDisplay:10.37,2013-08-19 18:37:00,
2013-08-19 14:42:00,89.9,79.2,30.02,ESE,117,2.5,9.2,71,0.00,FEW,,0.01,826.0,WeatherDisplay:10.37,2013-08-19 18:42:00,
2013-08-19 14:47:00,90.3,79.2,30.02,SSE,155,3.1,9.0,70,0.00,FEW,,0.01,826.0,WeatherDisplay:10.37,2013-08-19 18:47:00,
2013-08-19 14:52:00,90.2,79.1,30.02,ESE,120,6.5,11.5,70,0.00,FEW,,0.01,814.0,WeatherDisplay:10.37,2013-08-19 18:52:00,
2013-08-19 14:57:00,89.8,78.7,30.01,ESE,103,5.0,11.5,70,0.00,FEW,,0.01,853.0,WeatherDisplay:10.37,2013-08-19 18:57:00,
2013-08-19 15:02:00,89.9,79.7,30.01,East,101,4.3,11.5,72,0.00,FEW,,0.01,824.0,WeatherDisplay:10.37,2013-08-19 19:02:00,
2013-08-19 15:07:00,90.1,78.6,30.01,SE,126,4.7,9.2,69,0.00,FEW,,0.01,791.0,WeatherDisplay:10.37,2013-08-19 19:07:00,
2013-08-19 15:12:00,90.2,78.6,30.01,ESE,103,6.4,9.2,69,0.00,FEW,,0.01,793.0,WeatherDisplay:10.37,2013-08-19 19:12:00,
2013-08-19 15:17:00,90.2,79.1,30.01,ESE,115,5.6,10.0,70,0.00,FEW,,0.01,802.0,WeatherDisplay:10.37,2013-08-19 19:17:00,
2013-08-19 15:22:00,90.5,78.0,30.01,SE,135,8.8,15.0,67,0.00,FEW,,0.01,770.0,WeatherDisplay:10.37,2013-08-19 19:22:00,
2013-08-19 15:27:00,90.6,78.6,30.00,South,180,6.2,10.4,68,0.00,FEW,,0.01,747.0,WeatherDisplay:10.37,2013-08-19 19:27:00,
2013-08-19 15:32:00,90.5,78.9,30.00,ESE,121,5.0,9.2,69,0.00,FEW,,0.01,735.0,WeatherDisplay:10.37,2013-08-19 19:32:00,
2013-08-19 15:37:00,90.5,78.5,30.00,SE,136,5.5,9.0,68,0.00,FEW,,0.01,722.0,WeatherDisplay:10.37,2013-08-19 19:37:00,
2013-08-19 15:42:00,90.3,79.2,30.00,ESE,109,1.0,8.1,70,0.00,FEW,,0.01,712.0,WeatherDisplay:10.37,2013-08-19 19:42:00,
2013-08-19 15:47:00,90.5,78.9,30.00,East,98,1.6,5.8,69,0.00,FEW,,0.01,705.0,WeatherDisplay:10.37,2013-08-19 19:47:00,
2013-08-19 15:52:00,90.5,77.6,30.00,SE,129,6.3,9.2,66,0.00,FEW,,0.01,691.0,WeatherDisplay:10.37,2013-08-19 19:52:00,
2013-08-19 15:57:00,90.4,77.9,30.00,ESE,121,6.5,10.4,67,0.00,FEW,,0.01,677.0,WeatherDisplay:10.37,2013-08-19 19:57:00,
2013-08-19 16:02:00,90.2,78.2,30.00,East,99,5.1,8.1,68,0.00,FEW,,0.01,670.0,WeatherDisplay:10.37,2013-08-19 20:02:00,
2013-08-19 16:07:00,90.3,78.7,30.00,East,101,4.6,8.1,69,0.00,FEW,,0.01,656.0,WeatherDisplay:10.37,2013-08-19 20:07:00,
2013-08-19 16:12:00,90.3,78.7,30.00,East,101,3.7,9.2,69,0.00,FEW,,0.01,643.0,WeatherDisplay:10.37,2013-08-19 20:12:00,
2013-08-19 16:17:00,90.5,78.9,30.00,ESE,103,4.1,8.1,69,0.00,FEW,,0.01,626.0,WeatherDisplay:10.37,2013-08-19 20:17:00,
2013-08-19 16:22:00,90.4,77.9,30.00,ESE,102,4.1,8.1,67,0.00,FEW,,0.01,617.0,WeatherDisplay:10.37,2013-08-19 20:22:00,
2013-08-19 16:27:00,90.4,77.9,30.00,ESE,108,3.6,8.1,67,0.00,FEW,,0.01,603.0,WeatherDisplay:10.37,2013-08-19 20:27:00,
2013-08-19 16:32:00,90.2,77.8,29.99,SSE,159,3.7,4.6,67,0.00,FEW,,0.01,589.0,WeatherDisplay:10.37,2013-08-19 20:32:00,
2013-08-19 16:37:00,90.1,78.6,29.99,ESE,111,4.1,6.0,69,0.00,FEW,,0.01,573.0,WeatherDisplay:10.37,2013-08-19 20:37:00,
2013-08-19 16:42:00,90.3,77.8,29.99,ESE,105,2.8,5.8,67,0.00,FEW,,0.01,561.0,WeatherDisplay:10.37,2013-08-19 20:42:00,
2013-08-19 16:47:00,90.1,78.6,29.99,ESE,102,0.7,6.9,69,0.00,FEW,,0.01,543.0,WeatherDisplay:10.37,2013-08-19 20:47:00,
2013-08-19 16:52:00,90.2,78.2,29.99,SE,140,1.4,5.8,68,0.00,FEW,,0.01,529.0,WeatherDisplay:10.37,2013-08-19 20:52:00,
2013-08-19 16:57:00,90.3,78.3,29.99,ENE,65,4.8,9.2,68,0.00,FEW,,0.01,515.0,WeatherDisplay:10.37,2013-08-19 20:57:00,
2013-08-19 17:02:00,90.2,78.2,29.99,SE,144,6.4,9.2,68,0.00,FEW,,0.01,497.0,WeatherDisplay:10.37,2013-08-19 21:02:00,
2013-08-19 17:07:00,90.0,78.5,29.99,East,96,4.8,9.2,69,0.00,FEW,,0.01,480.0,WeatherDisplay:10.37,2013-08-19 21:07:00,
2013-08-19 17:12:00,90.0,78.5,29.99,ESE,108,3.9,9.2,69,0.00,FEW,,0.01,464.0,WeatherDisplay:10.37,2013-08-19 21:12:00,
2013-08-19 17:17:00,89.8,78.3,29.99,East,90,2.9,8.1,69,0.00,FEW,,0.01,446.0,WeatherDisplay:10.37,2013-08-19 21:17:00,
2013-08-19 17:22:00,89.7,78.6,29.99,ESE,117,3.0,3.5,70,0.00,FEW,,0.01,429.0,WeatherDisplay:10.37,2013-08-19 21:22:00,
2013-08-19 17:27:00,89.5,78.0,29.99,East,89,4.3,8.1,69,0.00,FEW,,0.01,411.0,WeatherDisplay:10.37,2013-08-19 21:27:00,
2013-08-19 17:32:00,89.3,78.2,29.99,SE,124,2.2,4.0,70,0.00,FEW,,0.01,392.0,WeatherDisplay:10.37,2013-08-19 21:32:00,
2013-08-19 17:37:00,88.8,78.2,29.99,ESE,113,2.6,9.2,71,0.00,FEW,,0.01,380.0,WeatherDisplay:10.37,2013-08-19 21:37:00,
2013-08-19 17:42:00,88.4,77.8,29.99,East,96,4.2,7.0,71,0.00,FEW,,0.01,364.0,WeatherDisplay:10.37,2013-08-19 21:42:00,
2013-08-19 17:47:00,88.1,77.9,29.99,ESE,104,1.6,8.1,72,0.00,FEW,,0.01,348.0,WeatherDisplay:10.37,2013-08-19 21:47:00,
2013-08-19 17:52:00,87.9,77.3,29.98,SE,146,7.0,10.4,71,0.00,FEW,,0.01,332.0,WeatherDisplay:10.37,2013-08-19 21:52:00,
2013-08-19 17:57:00,87.5,77.4,29.98,East,80,2.2,5.8,72,0.00,SCT,,0.01,49.0,WeatherDisplay:10.37,2013-08-19 21:57:00,
2013-08-19 18:02:00,87.4,77.3,29.98,SSE,151,3.3,4.6,72,0.00,BKN,,0.01,47.0,WeatherDisplay:10.37,2013-08-19 22:02:00,
2013-08-19 18:07:00,87.3,76.7,29.98,SSE,163,2.9,9.0,71,0.00,BKN,,0.01,46.0,WeatherDisplay:10.37,2013-08-19 22:07:00,
2013-08-19 18:12:00,87.1,76.5,29.98,East,90,2.2,3.5,71,0.00,BKN,,0.01,46.0,WeatherDisplay:10.37,2013-08-19 22:12:00,
2013-08-19 18:17:00,86.9,76.8,29.98,ESE,115,3.7,8.1,72,0.00,BKN,,0.01,46.0,WeatherDisplay:10.37,2013-08-19 22:17:00,
2013-08-19 18:22:00,86.7,76.6,29.99,ENE,62,3.1,8.1,72,0.00,BKN,,0.01,46.0,WeatherDisplay:10.37,2013-08-19 22:22:00,
2013-08-19 18:27:00,86.5,76.4,29.99,ESE,111,2.1,6.0,72,0.00,BKN,,0.01,49.0,WeatherDisplay:10.37,2013-08-19 22:27:00,
2013-08-19 18:32:00,86.2,76.5,29.99,SSE,158,4.6,10.4,73,0.00,BKN,,0.01,42.0,WeatherDisplay:10.37,2013-08-19 22:32:00,
2013-08-19 18:37:00,85.8,76.5,29.99,SSE,167,2.5,4.6,74,0.00,BKN,,0.01,40.0,WeatherDisplay:10.37,2013-08-19 22:37:00,
2013-08-19 18:42:00,85.7,76.9,29.98,East,96,0.2,3.5,75,0.00,BKN,,0.01,37.0,WeatherDisplay:10.37,2013-08-19 22:42:00,
2013-08-19 18:47:00,85.7,76.9,29.98,SE,143,3.1,4.6,75,0.00,BKN,,0.01,33.0,WeatherDisplay:10.37,2013-08-19 22:47:00,
2013-08-19 18:52:00,85.6,77.2,29.98,ESE,106,1.9,6.0,76,0.00,BKN,,0.01,28.0,WeatherDisplay:10.37,2013-08-19 22:52:00,
2013-08-19 18:57:00,85.4,77.0,29.99,SE,128,1.9,5.8,76,0.00,BKN,,0.01,26.0,WeatherDisplay:10.37,2013-08-19 22:57:00,
2013-08-19 19:02:00,85.2,77.2,29.99,SE,134,3.3,5.8,77,0.00,BKN,,0.01,25.0,WeatherDisplay:10.37,2013-08-19 23:02:00,
2013-08-19 19:07:00,85.1,77.1,29.98,SSE,153,0.4,3.5,77,0.00,BKN,,0.01,23.0,WeatherDisplay:10.37,2013-08-19 23:07:00,
2013-08-19 19:12:00,85.0,77.4,29.99,ESE,103,0.0,2.3,78,0.00,BKN,,0.01,21.0,WeatherDisplay:10.37,2013-08-19 23:12:00,
2013-08-19 19:17:00,84.8,77.2,29.99,East,90,1.9,2.0,78,0.00,BKN,,0.01,19.0,WeatherDisplay:10.37,2013-08-19 23:17:00,
2013-08-19 19:22:00,84.6,77.0,29.99,ESE,121,1.9,3.5,78,0.00,BKN,,0.01,18.0,WeatherDisplay:10.37,2013-08-19 23:22:00,
2013-08-19 19:27:00,84.4,76.8,29.99,ESE,117,1.2,5.8,78,0.00,BKN,,0.01,16.0,WeatherDisplay:10.37,2013-08-19 23:27:00,
2013-08-19 19:32:00,84.3,77.1,29.99,ESE,104,1.3,3.5,79,0.00,BKN,,0.01,11.0,WeatherDisplay:10.37,2013-08-19 23:32:00,
2013-08-19 19:37:00,84.1,76.9,29.99,ESE,105,0.0,2.3,79,0.00,BKN,,0.01,9.0,WeatherDisplay:10.37,2013-08-19 23:37:00,
2013-08-19 19:42:00,83.9,77.1,29.99,SE,136,2.1,5.8,80,0.00,BKN,,0.01,7.0,WeatherDisplay:10.37,2013-08-19 23:42:00,
2013-08-19 19:47:00,83.8,77.0,29.99,ESE,105,0.0,1.1,80,0.00,BKN,,0.01,5.0,WeatherDisplay:10.37,2013-08-19 23:47:00,
2013-08-19 19:52:00,83.7,76.5,30.00,ESE,110,1.1,3.5,79,0.00,OVC,,0.01,0.0,WeatherDisplay:10.37,2013-08-19 23:52:00,
2013-08-19 19:57:00,83.6,76.0,30.00,ESE,118,1.1,2.3,78,0.00,OVC,,0.01,0.0,WeatherDisplay:10.37,2013-08-19 23:57:00,
2013-08-19 20:02:00,83.5,76.3,30.00,ESE,107,1.2,2.3,79,0.00,CLR,,0.01,0.0,WeatherDisplay:10.37,2013-08-20 00:02:00,
2013-08-19 20:07:00,83.4,76.2,30.00,ESE,111,1.0,3.0,79,0.00,CLR,,0.01,0.0,WeatherDisplay:10.37,2013-08-20 00:07:00,
2013-08-19 20:12:00,83.3,76.1,30.00,SE,144,0.6,2.3,79,0.00,CLR,,0.01,0.0,WeatherDisplay:10.37,2013-08-20 00:12:00,
2013-08-19 20:17:00,83.2,76.0,30.00,SE,141,2.3,3.5,79,0.00,CLR,,0.01,0.0,WeatherDisplay:10.37,2013-08-20 00:17:00,
2013-08-19 20:22:00,83.2,76.0,30.00,ESE,119,0.2,3.0,79,0.00,CLR,,0.01,0.0,WeatherDisplay:10.37,2013-08-20 00:22:00,
2013-08-19 20:27:00,83.1,75.9,30.01,ESE,107,0.3,2.3,79,0.00,CLR,,0.01,0.0,WeatherDisplay:10.37,2013-08-20 00:27:00,
2013-08-19 20:32:00,83.0,76.2,30.01,ESE,107,0.3,2.3,80,0.00,CLR,,0.01,0.0,WeatherDisplay:10.37,2013-08-20 00:32:00,
2013-08-19 20:37:00,83.0,76.2,30.01,ESE,108,0.0,0.0,80,0.00,CLR,,0.01,0.0,WeatherDisplay:10.37,2013-08-20 00:37:00,
2013-08-19 20:42:00,83.0,76.2,30.01,ESE,108,0.0,0.0,80,0.00,CLR,,0.01,0.0,WeatherDisplay:10.37,2013-08-20 00:42:00,
2013-08-19 20:47:00,82.9,76.1,30.01,ESE,108,0.0,0.0,80,0.00,CLR,,0.01,0.0,WeatherDisplay:10.37,2013-08-20 00:47:00,
2013-08-19 20:52:00,82.8,75.6,30.01,ESE,108,0.0,0.0,79,0.00,CLR,,0.01,0.0,WeatherDisplay:10.37,2013-08-20 00:52:00,
2013-08-19 20:57:00,82.8,76.0,30.01,ESE,106,0.5,2.3,80,0.00,CLR,,0.01,0.0,WeatherDisplay:10.37,2013-08-20 00:57:00,
2013-08-19 21:02:00,82.8,76.0,30.01,ESE,106,0.0,0.0,80,0.00,CLR,,0.01,0.0,WeatherDisplay:10.37,2013-08-20 01:02:00,
2013-08-19 21:07:00,82.7,75.9,30.02,ESE,106,0.0,0.0,80,0.00,CLR,,0.01,0.0,WeatherDisplay:10.37,2013-08-20 01:07:00,
2013-08-19 21:12:00,82.6,75.8,30.02,ESE,105,0.0,0.0,80,0.00,CLR,,0.01,0.0,WeatherDisplay:10.37,2013-08-20 01:12:00,
2013-08-19 21:17:00,82.5,76.1,30.02,ESE,105,0.9,3.5,81,0.00,CLR,,0.01,0.0,WeatherDisplay:10.37,2013-08-20 01:17:00,
2013-08-19 21:22:00,82.6,76.2,30.02,ESE,105,0.0,0.0,81,0.00,CLR,,0.01,0.0,WeatherDisplay:10.37,2013-08-20 01:22:00,
2013-08-19 21:27:00,82.5,76.1,30.02,ESE,105,0.0,0.0,81,0.00,CLR,,0.01,0.0,WeatherDisplay:10.37,2013-08-20 01:27:00,
2013-08-19 21:32:00,82.4,76.0,30.02,ESE,105,0.0,0.0,81,0.00,CLR,,0.01,0.0,WeatherDisplay:10.37,2013-08-20 01:32:00,
2013-08-19 21:37:00,82.3,75.9,30.02,ESE,105,0.0,0.0,81,0.00,CLR,,0.01,0.0,WeatherDisplay:10.37,2013-08-20 01:37:00,
2013-08-19 21:42:00,82.3,76.3,30.02,ESE,105,0.0,0.0,82,0.00,CLR,,0.01,0.0,WeatherDisplay:10.37,2013-08-20 01:42:00,
2013-08-19 21:47:00,82.3,76.3,30.02,ESE,105,0.0,0.0,82,0.00,CLR,,0.01,0.0,WeatherDisplay:10.37,2013-08-20 01:47:00,
2013-08-19 21:52:00,82.3,75.9,30.02,ESE,105,0.0,0.0,81,0.00,CLR,,0.01,0.0,WeatherDisplay:10.37,2013-08-20 01:52:00,
2013-08-19 21:57:00,82.3,76.3,30.02,ESE,105,0.0,0.0,82,0.00,CLR,,0.01,0.0,WeatherDisplay:10.37,2013-08-20 01:57:00,
2013-08-19 22:02:00,82.2,76.2,30.02,ESE,105,0.0,0.0,82,0.00,CLR,,0.01,0.0,WeatherDisplay:10.37,2013-08-20 02:02:00,
2013-08-19 22:07:00,82.1,76.1,30.02,ESE,105,0.0,0.0,82,0.00,CLR,,0.01,0.0,WeatherDisplay:10.37,2013-08-20 02:07:00,
2013-08-19 22:12:00,82.0,76.0,30.02,ESE,105,0.0,0.0,82,0.00,CLR,,0.01,0.0,WeatherDisplay:10.37,2013-08-20 02:12:00,
2013-08-19 22:17:00,82.0,76.0,30.03,ESE,105,0.0,0.0,82,0.00,CLR,,0.01,0.0,WeatherDisplay:10.37,2013-08-20 02:17:00,
2013-08-19 22:22:00,82.0,76.0,30.03,ESE,105,0.0,0.0,82,0.00,CLR,,0.01,0.0,WeatherDisplay:10.37,2013-08-20 02:22:00,
2013-08-19 22:27:00,82.1,76.1,30.03,ESE,105,0.0,0.0,82,0.00,CLR,,0.01,0.0,WeatherDisplay:10.37,2013-08-20 02:27:00,
2013-08-19 22:32:00,82.0,76.0,30.03,ESE,105,0.0,0.0,82,0.00,CLR,,0.01,0.0,WeatherDisplay:10.37,2013-08-20 02:32:00,
2013-08-19 22:37:00,82.1,76.1,30.03,ESE,105,0.0,0.0,82,0.00,CLR,,0.01,0.0,WeatherDisplay:10.37,2013-08-20 02:37:00,
2013-08-19 22:42:00,82.1,76.4,30.03,ESE,105,0.0,0.0,83,0.00,CLR,,0.01,0.0,WeatherDisplay:10.37,2013-08-20 02:42:00,
2013-08-19 22:47:00,82.1,76.8,30.04,ESE,105,0.0,0.0,84,0.00,CLR,,0.01,0.0,WeatherDisplay:10.37,2013-08-20 02:47:00,
2013-08-19 22:52:00,82.1,76.8,30.04,ESE,105,0.0,0.0,84,0.00,CLR,,0.01,0.0,WeatherDisplay:10.37,2013-08-20 02:52:00,
2013-08-19 22:57:00,82.1,76.8,30.04,ESE,105,0.0,0.0,84,0.00,CLR,,0.01,0.0,WeatherDisplay:10.37,2013-08-20 02:57:00,
2013-08-19 23:02:00,82.1,76.8,30.04,ESE,105,0.0,0.0,84,0.00,CLR,,0.01,0.0,WeatherDisplay:10.37,2013-08-20 03:02:00,
2013-08-19 23:07:00,82.0,76.7,30.04,ESE,105,0.0,0.0,84,0.00,CLR,,0.01,0.0,WeatherDisplay:10.37,2013-08-20 03:07:00,
2013-08-19 23:12:00,81.8,76.5,30.05,ESE,105,0.0,0.0,84,0.00,CLR,,0.01,0.0,WeatherDisplay:10.37,2013-08-20 03:12:00,
2013-08-19 23:17:00,81.7,76.4,30.04,East,101,0.0,0.0,84,0.00,CLR,,0.01,0.0,WeatherDisplay:10.37,2013-08-20 03:17:00,
2013-08-19 23:22:00,81.6,76.6,30.04,East,101,0.1,1.0,85,0.00,CLR,,0.01,0.0,WeatherDisplay:10.37,2013-08-20 03:22:00,
2013-08-19 23:27:00,81.5,76.6,30.04,East,101,0.0,0.0,85,0.00,CLR,,0.01,0.0,WeatherDisplay:10.37,2013-08-20 03:27:00,
2013-08-19 23:32:00,81.4,76.5,30.04,East,101,0.0,0.0,85,0.00,CLR,,0.01,0.0,WeatherDisplay:10.37,2013-08-20 03:32:00,
2013-08-19 23:37:00,81.5,76.6,30.04,East,98,0.0,1.1,85,0.00,CLR,,0.01,0.0,WeatherDisplay:10.37,2013-08-20 03:37:00,
2013-08-19 23:42:00,81.5,76.6,30.04,East,98,0.0,0.0,85,0.00,CLR,,0.01,0.0,WeatherDisplay:10.37,2013-08-20 03:42:00,
2013-08-19 23:47:00,81.5,76.6,30.04,East,99,0.0,0.0,85,0.00,CLR,,0.01,0.0,WeatherDisplay:10.37,2013-08-20 03:47:00,
2013-08-19 23:52:00,81.4,76.5,30.04,East,98,0.0,0.0,85,0.00,CLR,,0.01,0.0,WeatherDisplay:10.37,2013-08-20 03:52:00,
2013-08-19 23:57:00,81.3,76.7,30.04,East,92,0.4,2.3,86,0.00,CLR,,0.01,0.0,WeatherDisplay:10.37,2013-08-20 03:57:00,